Regional Weather Roundup
Issued by NWS

Home | Current Version | Previous Version | Graphics & Text | Print | Product List | Glossary On
Versions: 1 2 3 4 5 6 7 8 9 10 11 12 13 14 15 16 17 18 19 20 21 22 23 24 25 26 27 28 29 30 31 32 33 34 35 36 37 38 39 40 41 42 43 44 45 46 47 48 49 50
296
ASUS43 KFSD 232110
RWRSD

WEATHER ROUNDUP FOR SOUTH DAKOTA
NATIONAL WEATHER SERVICE SIOUX FALLS SD
400 PM CDT TUE MAY 23 2017

NOTE: "FAIR" INDICATES FEW OR NO CLOUDS BELOW 12,000 FEET WITH NO
SIGNIFICANT WEATHER AND/OR OBSTRUCTIONS TO VISIBILITY.


SDZ001>005-009-010-012>017-232200-
NORTHWEST AND NORTH CENTRAL SOUTH DAKOTA

CITY           SKY/WX    TMP DP  RH WIND       PRES   REMARKS
BUFFALO          N/A     67  35  30 N12G20    30.02F
FAITH            N/A     59  35  40 N24G30    30.05F
MOBRIDGE       CLOUDY    59  37  44 NE16G25   30.01F
$$

SDZ012>016-024>037-041>051-057-063-072>074-232200-
SOUTHWEST AND SOUTH CENTRAL SOUTH DAKOTA

CITY           SKY/WX    TMP DP  RH WIND       PRES   REMARKS
RAPID CTY ARPT MOSUNNY   63  34  33 N20G33    30.07F
PIERRE         LGT RAIN  56  39  53 N20G28    30.02R
CUSTER         MOSUNNY   55  27  34 N9G23     30.11S
ELLSWORTH AFB  MOSUNNY   62  33  33 N20G30    30.07F
PHILIP         CLOUDY    61  34  36 N23G33    30.03F
PINE RIDGE     CLOUDY    61  37  41 N17G30    30.07F
SPEARFISH      FAIR      61  36  39 N12G17    30.11F
WINNER         CLOUDY    57  42  57 N21G30    29.99S
$$

SDZ004>011-016>023-039-040-232200-
NORTHEAST SOUTH DAKOTA

CITY           SKY/WX    TMP DP  RH WIND       PRES   REMARKS
ABERDEEN       CLOUDY    56  41  57 N18       29.97F
WATERTOWN      LGT RAIN  48  46  93 N23G29    29.90R FOG
BROOKINGS      CLOUDY    52  46  82 N20       29.87S
SISSETON         N/A     53  49  86 N22G30    29.91F
$$

SDZ017-020-022-023-036>040-048>070-232200-
SOUTHEAST SOUTH DAKOTA

CITY           SKY/WX    TMP DP  RH WIND       PRES   REMARKS
SIOUX FALLS    CLOUDY    58  48  69 N17       29.85F
HURON          CLOUDY    53  45  74 N21       29.94S
CHAMBERLAIN    CLOUDY    55  44  66 N18G24    29.98S
MITCHELL       CLOUDY    56  45  66 N18G32    29.93S
YANKTON        CLOUDY    53  48  83 NW17      29.89S
$$

ABBREVIATIONS USED IN REMARKS
   TC - TEMPERATURE IN CELSIUS
  WCI - WIND CHILL INDEX
   HX - HEAT INDEX
  VSB - VISIBILITY





USA.gov is the U.S. government's official web portal to all federal, state and local government web resources and services.